Location: Newark
(50.4348°N, 30.5552°E)
Time: 17:37:53
(UTC+00:00)

Altair - Pass Details

Date: 22 January 2020
Orbit: 1502 x 1682 km, 47.2° (Epoch: 22 February)

Event Time Altitude Azimuth Distance (km) Brightness Sun altitude
Rises 05:03:25 0° 175° (S) 4,870 10.5 -6.9°
Reaches altitude 10° 05:08:29 10° 154° (SSE) 3,913 10.5 -6.2°
Maximum altitude 05:13:20 15° 124° (SE) 3,563 11.0 -5.5°
Drops below altitude 10° 05:18:12 10° 95° (E) 3,946 11.0 -4.8°
Sets 05:23:19 0° 74° (ENE) 4,937 11.0 -4.0°
